CW5846 Weather Reports


time (UTC)temp
C
wind
direction
speed
KPH
gust
KPH
rain 1hr
cm
rain 24hr
cm
rain mn
cm
humidity
%
barometer
mb
20260506112742 11 34 1.6 4.8 0.00 0.00 0.00 88 1032.6
20260506112240 11 340 0.0 6.4 0.00 0.00 0.00 88 1032.6
20260506111737 11 324 1.6 4.8 0.00 0.00 0.00 88 1032.5
20260506111235 11 353 3.2 4.8 0.00 0.00 0.00 87 1032.4
20260506110731 11 6 1.6 3.2 0.00 0.00 0.00 87 1032.4
20260506110229 11 255 6.4 9.7 0.00 0.00 0.00 87 1032.3
20260506105725 11 154 1.6 3.2 0.00 0.00 0.00 86 1032.3
20260506105223 11 349 1.6 4.8 0.00 0.00 0.00 86 1032.0
20260506104721 11 9 0.0 3.2 0.00 0.00 0.00 86 1032.2
20260506104218 11 0 1.6 1.6 0.00 0.00 0.00 86 1032.0
20260506103715 11 270 0.0 3.2 0.00 0.00 0.00 86 1031.9
20260506103212 11 297 3.2 3.2 0.00 0.00 0.00 85 1032.0
20260506102710 11 305 0.0 1.6 0.00 0.00 0.00 85 1031.9
20260506102208 11 171 0.0 1.6 0.00 0.00 0.00 85 1032.0
20260506101704 11 248 0.0 1.6 0.00 0.00 0.00 85 1031.7
20260506101201 11 341 0.0 1.6 0.00 0.00 0.00 85 1031.7
20260506100659 11 181 0.0 3.2 0.00 0.00 0.00 85 1031.5
20260506100157 11 65 1.6 3.2 0.00 0.00 0.00 85 1031.7
20260506095655 12 11 3.2 6.4 0.00 0.00 0.00 84 1031.7
20260506095151 12 278 0.0 1.6 0.00 0.00 0.00 84 1031.6
20260506094649 12 161 0.0 3.2 0.00 0.00 0.00 84 1031.4
20260506094147 12 345 0.0 1.6 0.00 0.00 0.00 84 1031.1
20260506093645 12 203 1.6 1.6 0.00 0.00 0.00 83 1031.2
20260506093142 12 319 3.2 3.2 0.00 0.00 0.00 84 1031.0
20260506092640 12 352 1.6 3.2 0.00 0.00 0.00 83 1031.0
20260506092137 12 86 1.6 4.8 0.00 0.00 0.00 83 1031.1
20260506091634 12 140 1.6 3.2 0.00 0.00 0.00 83 1030.9
20260506091132 12 1 0.0 1.6 0.00 0.00 0.00 83 1031.0
20260506090630 12 60 0.0 3.2 0.00 0.00 0.00 83 1030.9
20260506090126 12 334 1.6 1.6 0.00 0.00 0.00 83 1030.7
20260506085623 12 246 3.2 4.8 0.00 0.00 0.00 83 1030.6
20260506085119 12 327 1.6 6.4 0.00 0.00 0.00 82 1031.1
20260506084616 12 338 1.6 4.8 0.00 0.00 0.00 83 1031.3
20260506084112 12 296 1.6 3.2 0.00 0.00 0.00 82 1031.0
20260506083610 12 273 0.0 9.7 0.00 0.00 0.00 83 1031.1
20260506083107 12 171 1.6 6.4 0.00 0.00 0.00 82 1030.9
20260506082603 12 295 0.0 1.6 0.00 0.00 0.00 83 1030.5
20260506082059 12 303 3.2 3.2 0.00 0.00 0.00 82 1030.8
20260506081558 12 252 0.0 1.6 0.00 0.00 0.00 82 1030.5
20260506081054 12 304 0.0 1.6 0.00 0.00 0.00 82 1030.7
20260506080552 12 351 3.2 4.8 0.00 0.00 0.00 82 1030.8
20260506073033 12 290 0.0 3.2 0.00 0.00 0.00 81 1030.1
20260506072530 12 257 0.0 9.7 0.00 0.00 0.00 81 1030.1
20260506072027 12 339 0.0 4.8 0.00 0.00 0.00 81 1029.9
20260506071525 12 311 1.6 3.2 0.00 0.00 0.00 80 1030.4
20260506071022 12 222 1.6 3.2 0.00 0.00 0.00 80 1030.5
20260506070519 12 283 1.6 9.7 0.00 0.00 0.00 79 1030.3
20260506062457 13 292 1.6 4.8 0.00 0.00 0.00 78 1030.6
20260506061953 13 337 1.6 3.2 0.00 0.00 0.00 79 1030.6
20260506061449 13 278 1.6 3.2 0.00 0.00 0.00 78 1030.8
20260506060947 13 252 0.0 9.7 0.00 0.00 0.00 78 1030.6
20260506060445 13 119 1.6 3.2 0.00 0.00 0.00 79 1030.8
20260506050914 13 5 4.8 6.4 0.00 0.00 0.00 80 1030.5
20260506050412 13 80 1.6 4.8 0.00 0.00 0.00 79 1030.4
20260506044902 13 197 4.8 6.4 0.00 0.00 0.00 80 1030.3
20260506044400 14 87 3.2 6.4 0.00 0.00 0.00 79 1030.2
20260506043857 14 227 4.8 6.4 0.00 0.00 0.00 79 1030.4
20260506043354 14 181 1.6 3.2 0.00 0.00 0.00 80 1030.3
20260506042852 15 330 0.0 1.6 0.00 0.00 0.00 81 1030.1
20260506042351 15 112 1.6 6.4 0.00 0.00 0.00 80 1030.1
20260506041849 15 2 0.0 6.4 0.00 0.00 0.00 81 1030.2
20260506041346 15 349 3.2 4.8 0.00 0.00 0.00 81 1030.2
20260506040843 15 6 0.0 1.6 0.00 0.00 0.00 80 1030.0
20260506040340 15 341 3.2 4.8 0.00 0.00 0.00 80 1030.0
20260506035836 15 303 1.6 3.2 0.00 0.00 0.00 80 1030.1
20260506035334 15 330 3.2 6.4 0.00 0.00 0.00 80 1030.3
20260506034831 15 67 0.0 3.2 0.00 0.00 0.00 80 1029.9
20260506034328 15 21 3.2 4.8 0.00 0.00 0.00 80 1030.0
20260506033825 15 66 3.2 4.8 0.00 0.00 0.00 80 1029.9
20260506033322 15 180 1.6 4.8 0.00 0.00 0.00 81 1029.7
20260506032819 15 355 0.0 1.6 0.00 0.00 0.00 81 1029.7
20260506032316 15 325 3.2 3.2 0.00 0.00 0.00 81 1029.5
20260506031813 16 247 0.0 1.6 0.00 0.00 0.00 81 1029.6
20260506031310 16 314 3.2 4.8 0.00 0.00 0.00 81 1029.4
20260506030808 16 330 1.6 4.8 0.00 0.00 0.00 81 1029.6
20260506030306 16 76 3.2 4.8 0.00 0.00 0.00 81 1029.1
20260506025802 16 345 1.6 4.8 0.00 0.00 0.00 81 1029.0
20260506025258 16 306 3.2 3.2 0.00 0.00 0.00 80 1028.8
20260506024756 16 339 1.6 4.8 0.00 0.00 0.00 80 1028.9
20260506024252 16 338 1.6 9.7 0.00 0.00 0.00 80 1028.8
20260506023748 16 8 3.2 6.4 0.00 0.00 0.00 80 1028.7
20260506023246 16 33 3.2 4.8 0.00 0.00 0.00 81 1028.5
20260506022742 16 221 1.6 4.8 0.00 0.00 0.00 81 1028.4
20260506022240 16 14 1.6 4.8 0.00 0.00 0.00 81 1028.3
20260506021738 16 115 3.2 4.8 0.00 0.00 0.00 81 1028.1
20260506021235 17 197 1.6 6.4 0.00 0.00 0.00 80 1028.1
20260506020731 17 215 0.0 1.6 0.00 0.00 0.00 81 1028.2
20260506020229 17 332 1.6 4.8 0.00 0.00 0.00 81 1028.1
20260506015727 17 251 1.6 3.2 0.00 0.00 0.00 81 1027.9
20260506015224 17 3 3.2 6.4 0.00 0.00 0.00 80 1028.0
20260506014721 17 27 1.6 3.2 0.00 0.00 0.00 80 1028.0
20260506014217 17 341 3.2 3.2 0.00 0.00 0.00 80 1027.3
20260506013715 17 172 0.0 3.2 0.00 0.00 0.00 80 1027.2
20260506013212 18 250 3.2 4.8 0.00 0.00 0.00 80 1027.9
20260506012707 18 328 0.0 3.2 0.00 0.00 0.00 79 1027.6
20260506012205 18 163 3.2 3.2 0.00 0.00 0.00 79 1027.1
20260506011702 18 314 1.6 3.2 0.00 0.00 0.00 78 1027.3
20260506011158 19 13 0.0 3.2 0.00 0.00 0.00 78 1027.3
20260506010657 19 309 1.6 3.2 0.00 0.00 0.00 77 1027.2
20260506010153 20 271 0.0 3.2 0.00 0.00 0.00 77 1026.7
20260506005650 20 247 1.6 4.8 0.00 0.00 0.00 77 1026.8
20260506005147 20 224 1.6 6.4 0.00 0.00 0.00 76 1027.2
20260506004643 21 284 1.6 3.2 0.00 0.00 0.00 76 1026.8
20260506004141 21 173 1.6 3.2 0.00 0.00 0.00 76 1026.4
20260506003637 21 11 1.6 6.4 0.00 0.00 0.00 77 1026.7
20260506003133 22 189 1.6 4.8 0.00 0.00 0.00 75 1026.8
20260506002629 22 146 1.6 11.3 0.00 0.00 0.00 75 1026.6
20260506002125 22 94 1.6 4.8 0.00 0.00 0.00 75 1026.3
20260506001621 23 52 1.6 4.8 0.00 0.00 0.00 74 1025.7
20260506001119 23 226 3.2 6.4 0.00 0.00 0.00 72 1025.5
20260506000616 24 357 3.2 4.8 0.00 0.00 0.00 70 1025.5
20260506000113 25 62 4.8 9.7 0.00 0.00 0.00 66 1025.7
20260505235611 25 350 1.6 4.8 0.00 0.00 0.00 63 1025.7
20260505235108 25 181 1.6 4.8 0.00 0.00 0.00 63 1025.6
20260505234605 25 325 0.0 0.0 0.00 0.00 0.00 66 1024.7
20260505234102 25 4 0.0 1.6 0.00 0.00 0.00 63 1025.7
20260505233559 25 351 0.0 3.2 0.00 0.00 0.00 61 1025.6
20260505233056 26 353 1.6 3.2 0.00 0.00 0.00 60 1025.2
20260505232554 26 317 0.0 3.2 0.00 0.00 0.00 60 1025.0
20260505232052 26 335 0.0 1.6 0.00 0.00 0.00 61 1024.9
20260505231548 26 329 1.6 3.2 0.00 0.00 0.00 62 1025.1
20260505231047 26 327 4.8 6.4 0.00 0.00 0.00 59 1025.1
20260505230544 27 345 1.6 3.2 0.00 0.00 0.00 58 1025.0
20260505230040 27 300 1.6 4.8 0.00 0.00 0.00 57 1024.9
20260505225537 28 268 3.2 4.8 0.00 0.00 0.00 62 1024.9
20260505225033 29 341 3.2 3.2 0.00 0.00 0.00 70 1024.9
20260505224531 29 158 0.0 3.2 0.00 0.00 0.00 67 1024.5
20260505224028 30 49 0.0 1.6 0.00 0.00 0.00 67 1024.0
20260505223525 30 161 3.2 6.4 0.00 0.00 0.00 66 1023.9
20260505223021 30 304 1.6 3.2 0.00 0.00 0.00 64 1023.9
20260505222517 30 220 1.6 1.6 0.00 0.00 0.00 66 1024.2
20260505222013 29 173 0.0 4.8 0.00 0.00 0.00 69 1023.9
20260505221511 29 159 3.2 4.8 0.00 0.00 0.00 67 1024.0
20260505221008 29 164 4.8 11.3 0.00 0.00 0.00 68 1024.0
20260505220504 28 15 0.0 1.6 0.00 0.00 0.00 69 1024.0
20260505220002 29 207 3.2 4.8 0.00 0.00 0.00 68 1024.0
20260505215500 30 154 1.6 6.4 0.00 0.00 0.00 68 1024.3
20260505214958 30 300 1.6 3.2 0.00 0.00 0.00 66 1024.1
20260505214456 30 327 1.6 3.2 0.00 0.00 0.00 65 1024.2
20260505213952 30 292 3.2 4.8 0.00 0.00 0.00 64 1024.5
20260505213450 30 126 4.8 9.7 0.00 0.00 0.00 65 1024.6
20260505212946 30 257 4.8 9.7 0.00 0.00 0.00 65 1024.3
20260505212443 30 319 3.2 6.4 0.00 0.00 0.00 63 1024.4
20260505211939 30 254 3.2 9.7 0.00 0.00 0.00 67 1024.4
20260505211437 30 111 1.6 6.4 0.00 0.00 0.00 65 1024.5
20260505210933 30 126 3.2 4.8 0.00 0.00 0.00 66 1024.4
20260505210431 31 157 3.2 4.8 0.00 0.00 0.00 64 1024.5
20260505205927 31 105 1.6 4.8 0.00 0.00 0.00 62 1024.5
20260505205426 30 294 1.6 4.8 0.00 0.00 0.00 65 1024.6
20260505204922 30 227 4.8 6.4 0.00 0.00 0.00 65 1024.8
20260505204420 30 225 4.8 9.7 0.00 0.00 0.00 65 1024.7
20260505203917 31 300 1.6 9.7 0.00 0.00 0.00 63 1025.1
20260505203413 30 163 1.6 3.2 0.00 0.00 0.00 65 1024.6
20260505202910 29 260 3.2 6.4 0.00 0.00 0.00 66 1024.9
20260505202406 28 196 4.8 6.4 0.00 0.00 0.00 70 1025.0
20260505201903 28 182 1.6 14.5 0.00 0.00 0.00 70 1024.9
20260505201400 28 143 1.6 11.3 0.00 0.00 0.00 68 1025.1
20260505200858 28 306 0.0 1.6 0.00 0.00 0.00 68 1025.2
20260505200355 28 243 1.6 9.7 0.00 0.00 0.00 68 1025.1
20260505195850 28 97 3.2 4.8 0.00 0.00 0.00 69 1025.0
20260505195348 28 346 3.2 4.8 0.00 0.00 0.00 67 1025.3
20260505194845 28 176 3.2 6.4 0.00 0.00 0.00 69 1025.1
20260505194342 28 139 1.6 4.8 0.00 0.00 0.00 69 1025.0
20260505193837 27 204 6.4 9.7 0.00 0.00 0.00 70 1025.1
20260505193335 27 185 6.4 14.5 0.00 0.00 0.00 69 1025.1
20260505192833 28 285 3.2 11.3 0.00 0.00 0.00 69 1025.1
20260505192331 27 190 1.6 9.7 0.00 0.00 0.00 70 1024.7
20260505191828 28 224 1.6 12.9 0.00 0.00 0.00 69 1025.0
20260505191327 28 150 8.0 12.9 0.00 0.00 0.00 68 1024.9
20260505190823 28 156 4.8 9.7 0.00 0.00 0.00 67 1024.8
20260505190318 28 232 3.2 4.8 0.00 0.00 0.00 68 1024.8
20260505185815 28 175 6.4 6.4 0.00 0.00 0.00 68 1025.1
20260505185311 28 283 1.6 6.4 0.00 0.00 0.00 67 1025.0
20260505184807 28 202 4.8 9.7 0.00 0.00 0.00 68 1025.0
20260505184304 28 148 4.8 9.7 0.00 0.00 0.00 70 1025.1
20260505183801 27 87 0.0 9.7 0.00 0.00 0.00 70 1025.1
20260505183258 28 341 3.2 6.4 0.00 0.00 0.00 69 1025.1
20260505182755 27 275 4.8 6.4 0.00 0.00 0.00 69 1025.1
20260505182252 27 196 1.6 6.4 0.00 0.00 0.00 70 1025.1
20260505181748 27 185 3.2 12.9 0.00 0.00 0.00 69 1025.3
20260505181246 27 165 14.5 17.7 0.00 0.00 0.00 69 1025.3
20260505180742 27 89 0.0 9.7 0.00 0.00 0.00 71 1024.9
20260505180239 27 114 4.8 12.9 0.00 0.00 0.00 72 1025.0
20260505175735 27 134 3.2 14.5 0.00 0.00 0.00 70 1025.1
20260505175232 27 168 1.6 6.4 0.00 0.00 0.00 71 1025.0
20260505174728 27 186 9.7 17.7 0.00 0.00 0.00 71 1025.0
20260505174225 27 332 0.0 17.7 0.00 0.00 0.00 72 1025.0
20260505173721 27 239 6.4 17.7 0.00 0.00 0.00 71 1025.0
20260505173218 27 174 4.8 14.5 0.00 0.00 0.00 72 1024.8
20260505172715 26 186 3.2 4.8 0.00 0.00 0.00 73 1024.8
20260505172212 26 233 1.6 4.8 0.00 0.00 0.00 73 1024.7
20260505171712 26 355 1.6 12.9 0.00 0.00 0.00 74 1025.0
20260505171210 26 182 8.0 11.3 0.00 0.00 0.00 74 1024.3
20260505170706 26 186 1.6 4.8 0.00 0.00 0.00 74 1025.0
20260505170203 26 216 8.0 12.9 0.00 0.00 0.00 74 1024.8
20260505165703 26 261 6.4 9.7 0.00 0.00 0.00 74 1025.2
20260505165200 26 231 1.6 12.9 0.00 0.00 0.00 74 1025.4
20260505164655 26 149 3.2 9.7 0.00 0.00 0.00 74 1025.5
20260505164153 26 167 9.7 14.5 0.00 0.00 0.00 73 1025.4
20260505163651 26 342 6.4 20.9 0.00 0.00 0.00 73 1024.9
20260505163149 27 111 1.6 3.2 0.00 0.00 0.00 73 1024.7
20260505162646 26 332 1.6 9.7 0.00 0.00 0.00 74 1024.8
20260505162143 26 151 0.0 4.8 0.00 0.00 0.00 76 1024.7
20260505161640 25 185 3.2 11.3 0.00 0.00 0.00 76 1024.7
20260505161137 25 180 4.8 11.3 0.00 0.00 0.00 75 1024.8
20260505160635 25 175 4.8 12.9 0.00 0.00 0.00 75 1024.5
20260505160132 25 21 6.4 11.3 0.00 0.00 0.00 76 1024.5
20260505153112 24 223 8.0 14.5 0.00 0.00 0.00 80 1024.9
20260505152608 24 200 1.6 14.5 0.00 0.00 0.00 81 1024.9
20260505152104 23 96 3.2 6.4 0.00 0.00 0.00 81 1024.8
20260505151559 23 169 1.6 9.7 0.00 0.00 0.00 82 1024.8
20260505151057 23 168 1.6 11.3 0.00 0.00 0.00 81 1024.7
20260505150553 23 195 1.6 9.7 0.00 0.00 0.00 82 1024.8
20260505140519 22 220 3.2 12.9 0.00 0.00 0.00 84 1024.6
20260505124932 21 119 3.2 9.7 0.00 0.00 0.00 86 1024.7
20260505124429 21 155 11.3 12.9 0.00 0.00 0.00 86 1024.5
20260505123925 21 99 1.6 14.5 0.00 0.00 0.00 85 1024.5
20260505123422 21 191 1.6 9.7 0.00 0.00 0.00 86 1024.6
20260505122917 21 76 0.0 12.9 0.00 0.00 0.00 86 1024.5
20260505122415 21 198 4.8 9.7 0.00 0.00 0.00 86 1024.2
20260505121912 21 251 1.6 11.3 0.00 0.00 0.00 86 1024.2
20260505121409 21 240 9.7 16.1 0.00 0.00 0.00 86 1024.1
20260505120904 21 261 3.2 11.3 0.00 0.00 0.00 86 1024.1
20260505120401 21 131 6.4 16.1 0.00 0.00 0.00 86 1024.2
20260505115900 21 182 12.9 20.9 0.00 0.00 0.00 86 1024.2
20260505115357 21 77 1.6 4.8 0.00 0.00 0.00 86 1024.1
20260505114855 21 136 3.2 11.3 0.00 0.00 0.00 86 1024.2
20260505114351 21 117 6.4 9.7 0.00 0.00 0.00 86 1024.2
20260505113847 21 215 3.2 6.4 0.00 0.00 0.00 86 1024.2
20260505113344 21 265 1.6 9.7 0.00 0.00 0.00 86 1024.2